| time (UTC) | temp C | wind direction | speed KPH | gust KPH | rain 1hr cm | rain 24hr cm | rain mn cm | humidity % | barometer mb |
| 20260906045058 | 19 | 0.0 | 0.0 | 0.00 | 0.00 | 0.00 | 56 | 976.0 | |
| 20260906042034 | 18 | 0.0 | 0.0 | 0.00 | 0.00 | 0.00 | 58 | 976.0 | |
| 20260906035009 | 16 | 0.0 | 0.0 | 0.00 | 0.00 | 0.00 | 65 | 976.0 | |
| 20260906024921 | 17 | 0 | 0.0 | 0.0 | 0.00 | 0.00 | 0.00 | 64 | 976.0 |
| 20260906021857 | 18 | 0 | 0.0 | 0.0 | 0.00 | 0.00 | 0.00 | 60 | 976.0 |
| 20260906014833 | 18 | 0 | 0.0 | 0.0 | 0.00 | 0.00 | 0.00 | 58 | 976.0 |
| 20260906011809 | 19 | 0 | 0.0 | 0.0 | 0.00 | 0.00 | 0.00 | 58 | 976.0 |
| 20260906004745 | 19 | 0 | 0.0 | 0.0 | 0.00 | 0.00 | 0.00 | 58 | 976.0 |
| 20260906001721 | 19 | 0 | 0.0 | 0.0 | 0.00 | 0.00 | 0.00 | 57 | 976.0 |
| 20260905234657 | 20 | 0 | 0.0 | 0.0 | 0.00 | 0.00 | 0.00 | 56 | 976.0 |
| 20260905231632 | 20 | 0 | 0.0 | 0.0 | 0.00 | 0.00 | 0.00 | 56 | 976.0 |
| 20260905224608 | 20 | 0 | 0.0 | 0.0 | 0.00 | 0.00 | 0.00 | 56 | 976.0 |
| 20260905221544 | 20 | 0 | 0.0 | 0.0 | 0.00 | 0.00 | 0.00 | 51 | 976.0 |
| 20260905214520 | 21 | 0 | 0.0 | 0.0 | 0.00 | 0.00 | 0.00 | 51 | 976.0 |
| 20260905211456 | 21 | 0 | 0.0 | 0.0 | 0.00 | 0.00 | 0.00 | 53 | 976.0 |
| 20260905204432 | 21 | 0 | 0.0 | 0.0 | 0.00 | 0.00 | 0.00 | 54 | 975.0 |
| 20260905201407 | 21 | 0 | 0.0 | 0.0 | 0.00 | 0.00 | 0.00 | 58 | 975.0 |
| 20260905184255 | 21 | 0 | 0.0 | 0.0 | 0.00 | 0.00 | 0.00 | 61 | 975.0 |
| 20260905181231 | 22 | 0 | 0.0 | 0.0 | 0.00 | 0.00 | 0.00 | 61 | 974.0 |
| 20260905174207 | 22 | 0 | 0.0 | 0.0 | 0.00 | 0.00 | 0.00 | 59 | 974.0 |
| 20260905171142 | 22 | 0 | 0.0 | 0.0 | 0.00 | 0.00 | 0.00 | 57 | 974.0 |
| 20260905164118 | 22 | 0.0 | 0.0 | 0.00 | 0.00 | 0.00 | 57 | 973.0 | |
| 20260905155926 | 22 | 0.0 | 0.0 | 0.00 | 0.00 | 0.00 | 47 | 972.0 | |
| 20260905152902 | 23 | 0.0 | 0.0 | 0.00 | 0.00 | 0.00 | 45 | 972.0 | |
| 20260905145838 | 26 | 0.0 | 0.0 | 0.00 | 0.00 | 0.00 | 40 | 972.0 | |
| 20260905142814 | 32 | 0.0 | 0.0 | 0.00 | 0.00 | 0.00 | 30 | 971.0 | |
| 20260905135750 | 33 | 0.0 | 0.0 | 0.00 | 0.00 | 0.00 | 30 | 971.0 | |
| 20260905132726 | 35 | 0.0 | 0.0 | 0.00 | 0.00 | 0.00 | 27 | 971.0 | |
| 20260905125701 | 36 | 0.0 | 0.0 | 0.00 | 0.00 | 0.00 | 21 | 970.0 | |
| 20260905122637 | 36 | 0.0 | 0.0 | 0.00 | 0.00 | 0.00 | 21 | 970.0 | |
| 20260905115613 | 35 | 0.0 | 0.0 | 0.00 | 0.00 | 0.00 | 21 | 970.0 | |
| 20260905112549 | 38 | 0.0 | 0.0 | 0.00 | 0.00 | 0.00 | 20 | 970.0 | |
| 20260905095435 | 35 | 0.0 | 0.0 | 0.00 | 0.00 | 0.00 | 24 | 971.0 | |
| 20260905092411 | 33 | 0.0 | 0.0 | 0.00 | 0.00 | 0.00 | 26 | 971.0 | |
| 20260905082322 | 30 | 0.0 | 0.0 | 0.00 | 0.00 | 0.00 | 28 | 972.0 | |
| 20260905075257 | 31 | 0.0 | 0.0 | 0.00 | 0.00 | 0.00 | 30 | 972.0 | |
| 20260905072206 | 30 | 0.0 | 0.0 | 0.00 | 0.00 | 0.00 | 29 | 972.0 | |
| 20260905065142 | 30 | 0.0 | 0.0 | 0.00 | 0.00 | 0.00 | 29 | 972.0 | |
| 20260905062117 | 28 | 0.0 | 0.0 | 0.00 | 0.00 | 0.00 | 32 | 972.0 | |
| 20260905055053 | 26 | 0.0 | 0.0 | 0.00 | 0.00 | 0.00 | 36 | 972.0 |